Volver al catálogo

STARLINK-32172

ActivoComunicacionesVLEO
NORAD 61518·PAYLOAD·🇺🇸 United States

Lanzado Oct 15, 2024 desde Cape Canaveral Space Force Station

Loading…

Próximos Pases (próximas 24 horas)

TLE

ActualizadoSource: CelesTrak SupGP

Época: Sep 14, 2026, 14:06 UTC

1 61518C 24183K   26257.58798611  .00010406  00000+0  33470-3 0  2573
2 61518  53.1608 343.4466 0001280  74.7330   8.6422 15.31689124    14

Sigue STARLINK-32172 en tiempo real con AllMySat

Download on the App Store